Location: Moy Burn
(57.3833°N, 4.0667°W)
Time: 12:21:14
(UTC+00:00)

Resurs 01 Rocket - Pass Details

Date: 08 August 2020
Orbit: 635 x 644 km, 98.0° (Epoch: 22 September)

Event Time Altitude Azimuth Distance (km) Brightness Sun altitude
Rises 21:06:03 0° 182° (S) 2,930 4.6 -6.4°
Reaches altitude 10° 21:08:20 10° 189° (S) 2,027 3.9 -6.6°
Maximum altitude 21:12:33 43° 261° (W) 900 2.8 -7.0°
Drops below altitude 10° 21:16:49 10° 334° (NNW) 2,048 5.6 -7.4°
Sets 21:19:08 0° 341° (NNW) 2,964 6.4 -7.6°
